| time (UTC) | temp F | wind direction | speed knots | gust knots | rain 1hr in | rain 24hr in | rain mn in | humidity % | barometer mb |
| 20260508043019 | 49 | 224 | 0.0 | 0.0 | 0.00 | 0.84 | 0.00 | 92 | 1001.7 |
| 20260508041516 | 49 | 224 | 0.0 | 0.0 | 0.00 | 0.84 | 0.00 | 92 | 1001.8 |
| 20260508040014 | 49 | 224 | 0.0 | 0.0 | 0.00 | 0.84 | 0.00 | 92 | 1001.9 |
| 20260508034509 | 49 | 224 | 0.0 | 0.9 | 0.00 | 0.84 | 0.00 | 92 | 1002.1 |
| 20260508033006 | 49 | 224 | 0.0 | 1.7 | 0.00 | 0.84 | 0.00 | 92 | 1002.2 |
| 20260508031600 | 49 | 224 | 0.9 | 2.6 | 0.00 | 0.84 | 0.00 | 92 | 1002.2 |
| 20260508024600 | 49 | 223 | 0.0 | 2.6 | 0.00 | 0.84 | 0.84 | 92 | 1002.2 |
| 20260508023056 | 49 | 223 | 0.0 | 4.3 | 0.00 | 0.84 | 0.84 | 92 | 1001.8 |
| 20260508021555 | 49 | 222 | 0.0 | 3.5 | 0.00 | 0.84 | 0.84 | 92 | 1001.9 |
| 20260508020055 | 49 | 223 | 0.9 | 3.5 | 0.00 | 0.84 | 0.84 | 92 | 1002.1 |
| 20260508014554 | 49 | 223 | 0.9 | 5.2 | 0.00 | 0.84 | 0.84 | 92 | 1002.2 |
| 20260508013053 | 49 | 244 | 0.9 | 4.3 | 0.00 | 0.84 | 0.84 | 92 | 1001.9 |
| 20260508011555 | 48 | 214 | 0.9 | 4.3 | 0.00 | 0.84 | 0.84 | 92 | 1002.1 |
| 20260508010051 | 48 | 183 | 1.7 | 7.0 | 0.00 | 0.84 | 0.84 | 91 | 1002.2 |
| 20260508004554 | 49 | 184 | 2.6 | 5.2 | 0.00 | 0.84 | 0.84 | 91 | 1002.4 |
| 20260508003050 | 49 | 183 | 0.9 | 4.3 | 0.00 | 0.84 | 0.84 | 91 | 1002.4 |
| 20260508001549 | 49 | 178 | 2.6 | 7.0 | 0.00 | 0.84 | 0.84 | 91 | 1002.6 |
| 20260508000048 | 49 | 168 | 2.6 | 6.1 | 0.00 | 0.84 | 0.84 | 91 | 1002.8 |
| 20260507234558 | 49 | 168 | 2.6 | 7.0 | 0.00 | 0.84 | 0.84 | 91 | 1002.3 |
| 20260507233047 | 49 | 179 | 4.3 | 8.7 | 0.00 | 0.84 | 0.84 | 91 | 1002.8 |
| 20260507231550 | 49 | 158 | 2.6 | 6.1 | 0.00 | 0.84 | 0.84 | 91 | 1002.9 |
| 20260507230050 | 49 | 217 | 2.6 | 6.1 | 0.00 | 0.84 | 0.84 | 91 | 1002.9 |
| 20260507224549 | 49 | 182 | 0.9 | 4.3 | 0.00 | 0.84 | 0.84 | 91 | 1003.0 |
| 20260507223051 | 49 | 217 | 2.6 | 7.0 | 0.00 | 0.84 | 0.84 | 91 | 1003.2 |
| 20260507221548 | 49 | 198 | 4.3 | 12.2 | 0.00 | 0.84 | 0.84 | 91 | 1003.2 |
| 20260507220044 | 50 | 183 | 4.3 | 13.0 | 0.00 | 0.84 | 0.84 | 91 | 1003.0 |
| 20260507214542 | 49 | 164 | 3.5 | 14.8 | 0.03 | 0.84 | 0.84 | 91 | 1002.6 |
| 20260507213041 | 49 | 177 | 6.1 | 13.0 | 0.09 | 0.84 | 0.84 | 91 | 1002.5 |
| 20260507211538 | 49 | 191 | 6.1 | 13.9 | 0.20 | 0.84 | 0.84 | 90 | 1002.1 |
| 20260507210034 | 49 | 185 | 3.5 | 11.3 | 0.28 | 0.84 | 0.84 | 90 | 1003.3 |
| 20260507204531 | 50 | 144 | 5.2 | 13.0 | 0.37 | 0.81 | 0.81 | 90 | 1003.7 |
| 20260507203028 | 50 | 112 | 4.3 | 12.2 | 0.43 | 0.75 | 0.75 | 90 | 1004.2 |
| 20260507201625 | 51 | 193 | 4.3 | 16.5 | 0.41 | 0.65 | 0.65 | 90 | 1004.9 |
| 20260507200034 | 51 | 202 | 2.6 | 10.4 | 0.36 | 0.55 | 0.55 | 90 | 1005.4 |
| 20260507194524 | 51 | 131 | 4.3 | 14.8 | 0.31 | 0.43 | 0.43 | 90 | 1004.8 |
| 20260507193021 | 51 | 201 | 7.0 | 19.1 | 0.23 | 0.31 | 0.31 | 90 | 1005.1 |
| 20260507191518 | 52 | 154 | 7.0 | 17.4 | 0.17 | 0.24 | 0.24 | 89 | 1005.4 |
| 20260507190019 | 52 | 195 | 4.3 | 16.5 | 0.13 | 0.19 | 0.19 | 89 | 1005.9 |
| 20260507184516 | 52 | 182 | 6.1 | 13.9 | 0.06 | 0.13 | 0.13 | 89 | 1006.1 |
| 20260507183030 | 52 | 179 | 6.1 | 13.9 | 0.02 | 0.09 | 0.09 | 88 | 1006.1 |
| 20260507181514 | 53 | 195 | 5.2 | 16.5 | 0.01 | 0.07 | 0.07 | 87 | 1005.8 |
| 20260507180022 | 53 | 183 | 7.0 | 17.4 | 0.00 | 0.06 | 0.06 | 86 | 1005.7 |
| 20260507174512 | 54 | 142 | 7.0 | 12.2 | 0.00 | 0.06 | 0.06 | 85 | 1006.0 |
| 20260507173011 | 55 | 182 | 6.1 | 18.2 | 0.00 | 0.06 | 0.06 | 85 | 1006.3 |
| 20260507171509 | 55 | 42 | 8.7 | 16.5 | 0.00 | 0.06 | 0.06 | 85 | 1006.2 |
| 20260507170007 | 54 | 180 | 7.0 | 18.2 | 0.00 | 0.06 | 0.06 | 86 | 1006.6 |
| 20260507164506 | 54 | 169 | 7.8 | 20.9 | 0.00 | 0.06 | 0.06 | 85 | 1006.9 |
| 20260507163003 | 55 | 167 | 11.3 | 19.1 | 0.00 | 0.06 | 0.06 | 85 | 1007.4 |
| 20260507161501 | 55 | 205 | 6.1 | 18.2 | 0.00 | 0.06 | 0.06 | 85 | 1007.9 |
| 20260507154558 | 55 | 183 | 7.0 | 21.7 | 0.00 | 0.06 | 0.06 | 87 | 1008.3 |
| 20260507153057 | 55 | 201 | 9.6 | 18.2 | 0.01 | 0.06 | 0.06 | 87 | 1008.7 |
| 20260507151555 | 55 | 204 | 8.7 | 20.9 | 0.01 | 0.06 | 0.06 | 87 | 1009.3 |
| 20260507150059 | 55 | 206 | 8.7 | 17.4 | 0.01 | 0.06 | 0.06 | 88 | 1009.4 |
| 20260507144552 | 54 | 221 | 9.6 | 20.9 | 0.01 | 0.06 | 0.06 | 88 | 1009.7 |
| 20260507143054 | 54 | 184 | 9.6 | 16.5 | 0.00 | 0.06 | 0.06 | 88 | 1010.2 |
| 20260507141553 | 54 | 174 | 11.3 | 19.1 | 0.00 | 0.06 | 0.06 | 87 | 1010.7 |
| 20260507140049 | 54 | 192 | 7.0 | 17.4 | 0.00 | 0.06 | 0.06 | 87 | 1010.7 |
| 20260507134554 | 54 | 185 | 6.1 | 20.0 | 0.00 | 0.06 | 0.06 | 87 | 1010.6 |
| 20260507133047 | 55 | 204 | 8.7 | 18.2 | 0.00 | 0.06 | 0.06 | 87 | 1010.7 |
| 20260507131545 | 54 | 173 | 9.6 | 22.6 | 0.00 | 0.06 | 0.06 | 88 | 1010.4 |
| 20260507130044 | 53 | 148 | 6.1 | 21.7 | 0.00 | 0.06 | 0.06 | 89 | 1010.5 |
| 20260507124541 | 52 | 162 | 7.8 | 21.7 | 0.00 | 0.06 | 0.06 | 90 | 1010.1 |
| 20260507123039 | 52 | 198 | 7.0 | 14.8 | 0.00 | 0.06 | 0.06 | 89 | 1010.8 |
| 20260507121535 | 52 | 183 | 8.7 | 20.0 | 0.00 | 0.06 | 0.06 | 89 | 1011.8 |
| 20260507120033 | 53 | 144 | 10.4 | 18.2 | 0.00 | 0.06 | 0.06 | 89 | 1011.9 |
| 20260507114535 | 53 | 195 | 7.0 | 13.0 | 0.00 | 0.06 | 0.06 | 90 | 1012.6 |
| 20260507113031 | 53 | 146 | 5.2 | 21.7 | 0.00 | 0.06 | 0.06 | 90 | 1012.4 |
| 20260507111530 | 52 | 187 | 8.7 | 19.1 | 0.00 | 0.06 | 0.06 | 90 | 1012.2 |
| 20260507110030 | 51 | 129 | 5.2 | 16.5 | 0.00 | 0.06 | 0.06 | 90 | 1012.5 |
| 20260507104526 | 51 | 185 | 7.8 | 20.0 | 0.00 | 0.06 | 0.06 | 90 | 1012.6 |
| 20260507103028 | 51 | 155 | 5.2 | 17.4 | 0.00 | 0.06 | 0.06 | 91 | 1013.4 |
| 20260507101522 | 51 | 185 | 5.2 | 13.9 | 0.00 | 0.06 | 0.06 | 90 | 1012.9 |
| 20260507100021 | 51 | 185 | 3.5 | 15.6 | 0.00 | 0.06 | 0.06 | 90 | 1013.5 |
| 20260507094518 | 51 | 166 | 6.1 | 13.9 | 0.01 | 0.06 | 0.06 | 90 | 1013.0 |
| 20260507093017 | 51 | 182 | 9.6 | 17.4 | 0.02 | 0.06 | 0.06 | 90 | 1013.4 |
| 20260507091514 | 51 | 167 | 5.2 | 13.0 | 0.02 | 0.06 | 0.06 | 90 | 1013.5 |
| 20260507090013 | 51 | 192 | 4.3 | 13.0 | 0.03 | 0.06 | 0.06 | 90 | 1013.5 |
| 20260507084521 | 52 | 177 | 7.0 | 14.8 | 0.04 | 0.05 | 0.05 | 90 | 1013.6 |
| 20260507083009 | 52 | 181 | 7.0 | 13.0 | 0.03 | 0.04 | 0.04 | 90 | 1013.5 |
| 20260507081512 | 52 | 170 | 7.0 | 13.9 | 0.03 | 0.03 | 0.03 | 90 | 1013.7 |
| 20260507080004 | 51 | 180 | 6.1 | 14.8 | 0.02 | 0.02 | 0.02 | 89 | 1014.0 |
| 20260507074505 | 51 | 152 | 2.6 | 10.4 | 0.01 | 0.01 | 0.01 | 89 | 1014.3 |
| 20260507073101 | 51 | 174 | 5.2 | 11.3 | 0.01 | 0.01 | 0.01 | 89 | 1014.5 |
| 20260507071600 | 52 | 178 | 6.1 | 9.6 | 0.00 | 0.00 | 0.00 | 89 | 1014.4 |
| 20260507064552 | 52 | 191 | 6.1 | 13.0 | 0.00 | 0.00 | 0.00 | 89 | 1015.0 |
| 20260507063052 | 52 | 194 | 3.5 | 7.0 | 0.00 | 0.00 | 0.00 | 89 | 1015.0 |
| 20260507061544 | 52 | 208 | 0.9 | 6.1 | 0.00 | 0.00 | 0.00 | 89 | 1015.3 |
| 20260507060101 | 52 | 235 | 2.6 | 9.6 | 0.00 | 0.00 | 0.00 | 89 | 1015.5 |
| 20260507054559 | 52 | 190 | 2.6 | 7.8 | 0.00 | 0.00 | 0.00 | 89 | 1015.6 |
| 20260507053056 | 52 | 181 | 2.6 | 6.1 | 0.00 | 0.00 | 0.00 | 89 | 1015.8 |
| 20260507051555 | 52 | 192 | 2.6 | 7.8 | 0.00 | 0.00 | 0.00 | 89 | 1016.3 |
| 20260507050051 | 52 | 208 | 1.7 | 7.0 | 0.00 | 0.00 | 0.00 | 89 | 1016.8 |
| 20260507044549 | 52 | 198 | 1.7 | 5.2 | 0.00 | 0.00 | 0.00 | 89 | 1016.8 |